EA7WL-13 Weather Reports


time (UTC)temp
F
wind
direction
speed
knots
gust
knots
rain 1hr
in
rain 24hr
in
rain mn
in
humidity
%
barometer
mb
20260510234503 49 203 0.0 0.9 0.00 0.11 0.00 88 1019.2
20260510234217 49 0 0.0 0.0 0.00 0.11 0.00 88 1019.0
20260510233717 49 214 0.0 0.9 0.00 0.11 0.00 87 1019.1
20260510233003 50 199 0.0 0.9 0.00 0.11 0.00 85 1019.1
20260510232716 50 192 0.0 0.9 0.00 0.11 0.00 85 1019.1
20260510232003 50 192 0.0 1.7 0.00 0.11 0.00 85 1019.2
20260510231503 50 181 0.9 1.7 0.00 0.11 0.00 85 1019.3
20260510231003 50 183 0.9 1.7 0.00 0.11 0.00 84 1019.1
20260510230503 51 196 0.9 1.7 0.00 0.11 0.00 82 1019.2
20260510230003 51 190 0.9 1.7 0.00 0.11 0.00 82 1019.1
20260510225503 51 185 0.9 1.7 0.00 0.11 0.00 81 1019.1
20260510225003 51 170 0.9 1.7 0.00 0.11 0.00 81 1019.0
20260510224503 51 162 0.9 1.7 0.00 0.11 0.00 81 1019.2
20260510224003 51 165 0.0 1.7 0.00 0.11 0.00 82 1019.3
20260510223503 52 193 0.0 1.7 0.00 0.11 0.00 81 1019.3
20260510223003 52 211 0.9 3.5 0.00 0.11 0.00 80 1019.3
20260510222503 52 208 2.6 3.5 0.00 0.11 0.00 80 1019.3
20260510222003 52 205 1.7 3.5 0.00 0.11 0.00 80 1019.3
20260510221503 52 210 1.7 3.5 0.00 0.11 0.00 80 1019.1
20260510221003 52 218 1.7 3.5 0.00 0.11 0.00 80 1019.4
20260510220503 53 221 2.6 3.5 0.00 0.11 0.00 80 1019.4
20260510220004 53 216 2.6 5.2 0.00 0.11 0.00 80 1019.4
20260510215503 53 213 2.6 5.2 0.00 0.11 0.11 78 1019.4
20260510215217 53 209 2.6 5.2 0.00 0.11 0.11 78 1019.4
20260510214503 53 209 2.6 5.2 0.00 0.11 0.11 78 1019.3
20260510214003 54 217 2.6 5.2 0.00 0.11 0.11 79 1019.2
20260510213503 54 207 2.6 5.2 0.00 0.11 0.11 78 1019.4
20260510213003 54 198 2.6 5.2 0.00 0.11 0.11 79 1019.3
20260510212503 54 197 2.6 5.2 0.00 0.11 0.11 81 1019.1
20260510212219 54 200 2.6 5.2 0.00 0.11 0.11 82 1019.4
20260510211717 54 207 2.6 6.1 0.00 0.11 0.11 82 1019.1
20260510211003 55 222 2.6 7.0 0.00 0.11 0.11 79 1019.2
20260510210503 55 230 2.6 6.1 0.00 0.11 0.11 79 1019.0
20260510210004 55 256 2.6 5.2 0.00 0.11 0.11 80 1019.0
20260510205503 55 266 2.6 5.2 0.00 0.11 0.11 80 1019.1
20260510205003 55 276 2.6 3.5 0.00 0.11 0.11 81 1019.1
20260510204503 55 270 2.6 5.2 0.00 0.11 0.11 80 1018.9
20260510204003 56 257 2.6 5.2 0.00 0.11 0.11 79 1019.0
20260510203503 56 264 2.6 3.5 0.00 0.11 0.11 79 1018.9
20260510203003 56 274 1.7 3.5 0.00 0.11 0.11 78 1019.0
20260510202503 56 273 1.7 2.6 0.00 0.11 0.11 78 1018.9
20260510202003 56 269 1.7 2.6 0.00 0.11 0.11 78 1018.9
20260510201503 56 289 1.7 3.5 0.00 0.11 0.11 77 1019.0
20260510201003 56 298 2.6 3.5 0.00 0.11 0.11 77 1019.0
20260510200503 56 289 0.9 3.5 0.00 0.11 0.11 76 1019.0
20260510200004 57 268 0.9 2.6 0.00 0.11 0.11 75 1019.0
20260510195503 57 285 0.9 5.2 0.00 0.11 0.11 75 1018.9
20260510195218 57 291 0.9 5.2 0.00 0.11 0.11 75 1018.9
20260510194503 57 279 0.9 2.6 0.00 0.11 0.11 74 1018.6
20260510194003 57 288 0.9 3.5 0.00 0.11 0.11 74 1018.6
20260510193503 57 292 1.7 3.5 0.00 0.11 0.11 74 1018.4
20260510193003 57 278 1.7 2.6 0.00 0.11 0.11 73 1018.5
20260510192503 57 284 1.7 3.5 0.00 0.11 0.11 73 1018.4
20260510192003 57 306 1.7 3.5 0.00 0.11 0.11 72 1018.4
20260510191504 58 281 1.7 3.5 0.00 0.11 0.11 72 1018.4
20260510191003 58 251 1.7 3.5 0.00 0.11 0.11 69 1018.5
20260510190503 58 272 2.6 5.2 0.00 0.11 0.11 67 1018.6
20260510190003 58 272 1.7 5.2 0.00 0.11 0.11 67 1018.4
20260510185717 58 262 1.7 5.2 0.00 0.11 0.11 68 1018.4
20260510185003 58 209 1.7 5.2 0.00 0.11 0.11 66 1018.3
20260510184503 58 214 1.7 5.2 0.00 0.11 0.11 67 1018.4
20260510184003 58 221 1.7 5.2 0.00 0.11 0.11 66 1018.5
20260510183716 58 199 1.7 7.0 0.00 0.11 0.11 66 1018.3
20260510183003 58 192 1.7 7.0 0.00 0.11 0.11 65 1018.4
20260510182503 59 209 1.7 5.2 0.00 0.11 0.11 65 1018.5
20260510182004 59 182 0.9 2.6 0.00 0.11 0.11 66 1018.2
20260510181503 59 187 0.9 2.6 0.00 0.11 0.11 65 1018.3
20260510181003 59 211 0.9 3.5 0.00 0.11 0.11 66 1018.4
20260510180503 59 204 1.7 5.2 0.00 0.11 0.11 65 1018.4
20260510180217 59 194 1.7 7.8 0.00 0.11 0.11 66 1018.3
20260510175718 59 179 1.7 7.8 0.00 0.11 0.11 66 1018.2
20260510175003 59 198 1.7 6.1 0.00 0.11 0.11 66 1018.3
20260510174503 59 204 2.6 6.1 0.00 0.11 0.11 66 1018.2
20260510174003 59 217 2.6 7.0 0.00 0.11 0.11 66 1018.4
20260510173503 59 221 3.5 7.0 0.00 0.11 0.11 65 1018.3
20260510173217 59 234 4.3 7.8 0.00 0.11 0.11 65 1018.4
20260510172503 59 253 3.5 7.8 0.00 0.11 0.11 65 1018.3
20260510172217 60 234 3.5 7.0 0.00 0.11 0.11 65 1018.2
20260510171503 60 261 4.3 8.7 0.00 0.11 0.11 65 1018.2
20260510171003 60 277 3.5 8.7 0.00 0.11 0.11 66 1018.3
20260510170503 60 239 2.6 7.8 0.00 0.11 0.11 67 1018.3
20260510170003 60 226 4.3 9.6 0.00 0.11 0.11 68 1018.3
20260510165503 59 231 5.2 9.6 0.00 0.11 0.11 70 1018.3
20260510165003 60 248 6.1 13.0 0.00 0.11 0.11 68 1018.2
20260510164503 59 248 6.1 13.9 0.00 0.11 0.11 68 1018.2
20260510164003 60 239 6.1 13.9 0.00 0.11 0.11 68 1017.9
20260510163718 60 245 6.1 11.3 0.00 0.11 0.11 68 1018.1
20260510163003 60 263 6.1 11.3 0.00 0.11 0.11 68 1018.2
20260510162718 60 268 6.1 11.3 0.00 0.11 0.11 69 1017.9
20260510162217 60 274 6.1 12.2 0.00 0.11 0.11 70 1018.2
20260510161503 59 272 7.0 12.2 0.00 0.11 0.11 71 1018.3
20260510161003 61 262 5.2 9.6 0.00 0.11 0.11 67 1018.2
20260510160503 61 272 5.2 7.8 0.00 0.11 0.11 67 1018.1
20260510160003 61 273 6.1 13.0 0.00 0.11 0.11 67 1018.1
20260510155503 61 271 5.2 13.0 0.00 0.11 0.11 68 1018.1
20260510155003 61 274 4.3 11.3 0.00 0.11 0.11 68 1018.1
20260510154717 60 277 5.2 11.3 0.00 0.11 0.11 68 1017.9
20260510154003 60 273 5.2 11.3 0.00 0.11 0.11 70 1018.0
20260510153503 61 272 6.1 12.2 0.00 0.11 0.11 70 1017.9
20260510153003 61 283 6.1 12.2 0.00 0.11 0.11 69 1017.7
20260510152503 62 283 4.3 11.3 0.00 0.11 0.11 66 1017.8
20260510152218 61 260 5.2 9.6 0.01 0.11 0.11 67 1017.8
20260510151503 61 248 7.8 15.6 0.01 0.11 0.11 69 1017.7
20260510151003 61 245 8.7 19.1 0.01 0.11 0.11 67 1017.8
20260510150503 62 226 7.8 20.0 0.01 0.11 0.11 65 1017.9
20260510150003 61 224 7.0 20.0 0.01 0.11 0.11 66 1018.0
20260510145503 61 219 7.0 13.9 0.01 0.11 0.11 67 1018.0
20260510145003 60 227 6.1 13.9 0.01 0.11 0.11 69 1017.9
20260510144717 61 237 6.1 13.9 0.01 0.11 0.11 70 1017.9
20260510144003 59 239 6.1 13.0 0.01 0.11 0.11 76 1017.9
20260510143503 58 256 7.0 12.2 0.01 0.11 0.11 80 1018.3
20260510143003 57 253 7.8 14.8 0.01 0.11 0.11 81 1018.2
20260510142503 58 241 9.6 16.5 0.01 0.11 0.11 78 1018.1
20260510142003 60 220 10.4 16.5 0.00 0.10 0.10 71 1018.0
20260510141503 63 196 10.4 26.1 0.00 0.10 0.10 60 1017.7
20260510141003 63 201 12.2 27.8 0.00 0.10 0.10 59 1017.6
20260510140503 63 211 12.2 27.8 0.00 0.10 0.10 61 1017.4
20260510140003 63 220 13.0 23.5 0.00 0.10 0.10 66 1017.7
20260510135503 62 220 12.2 23.5 0.00 0.10 0.10 66 1017.7
20260510135003 62 218 9.6 18.2 0.00 0.10 0.10 67 1017.7
20260510134717 62 227 9.6 18.2 0.00 0.10 0.10 69 1017.7
20260510134218 61 234 10.4 15.6 0.00 0.10 0.10 71 1017.5
20260510133503 60 223 11.3 18.2 0.00 0.11 0.10 73 1017.8
20260510133003 61 206 10.4 22.6 0.00 0.11 0.10 71 1018.0
20260510132503 62 191 10.4 22.6 0.00 0.11 0.10 68 1017.6
20260510132003 63 201 9.6 22.6 0.00 0.11 0.10 70 1017.8
20260510131719 63 209 8.7 19.1 0.00 0.11 0.10 68 1017.6
20260510131003 63 208 10.4 23.5 0.00 0.11 0.10 65 1017.7
20260510130716 62 208 11.3 25.2 0.00 0.11 0.10 66 1017.7
20260510130218 62 196 9.6 25.2 0.00 0.11 0.10 68 1017.6
20260510125503 62 183 8.7 18.2 0.00 0.11 0.10 70 1017.6
20260510125003 61 196 8.7 18.2 0.00 0.11 0.10 72 1017.7
20260510124503 63 193 7.8 15.6 0.00 0.11 0.10 70 1017.9
20260510124003 61 215 7.0 14.8 0.00 0.11 0.10 72 1017.9
20260510123503 61 235 7.8 13.9 0.00 0.11 0.10 74 1017.8
20260510123003 60 226 8.7 14.8 0.00 0.11 0.10 77 1017.9
20260510122503 60 209 8.7 16.5 0.00 0.11 0.10 75 1018.0
20260510122003 61 208 7.8 16.5 0.00 0.11 0.10 77 1017.9
20260510121503 60 208 7.8 16.5 0.01 0.11 0.10 78 1017.9
20260510121003 61 201 7.8 19.1 0.01 0.11 0.10 74 1018.1
20260510120503 60 206 7.8 19.1 0.01 0.11 0.10 76 1018.0
20260510120003 60 219 6.1 12.2 0.01 0.11 0.10 80 1018.1
20260510115503 58 201 7.8 14.8 0.01 0.11 0.10 83 1018.0
20260510115003 58 194 7.0 14.8 0.01 0.11 0.10 83 1018.2
20260510114718 58 200 6.1 14.8 0.01 0.11 0.10 83 1018.1
20260510114003 57 223 5.2 13.9 0.01 0.11 0.10 86 1018.0
20260510113503 57 222 6.1 13.9 0.01 0.11 0.10 87 1018.3
20260510113003 57 216 5.2 9.6 0.01 0.11 0.10 88 1018.3
20260510112503 57 204 6.1 13.0 0.01 0.11 0.10 87 1018.3
20260510112003 57 210 8.7 14.8 0.01 0.11 0.10 86 1018.3
20260510111718 57 211 9.6 18.2 0.01 0.11 0.10 85 1018.2
20260510111003 58 205 11.3 20.9 0.00 0.10 0.09 80 1018.3
20260510110503 60 206 8.7 16.5 0.00 0.10 0.09 79 1018.1
20260510110003 62 205 7.8 16.5 0.00 0.10 0.09 71 1017.8
20260510105503 61 200 8.7 19.1 0.00 0.10 0.09 72 1017.8
20260510105217 61 200 9.6 19.1 0.00 0.10 0.09 72 1018.0
20260510104503 61 197 11.3 25.2 0.00 0.10 0.09 71 1017.8
20260510104217 61 191 11.3 25.2 0.01 0.10 0.09 69 1017.8
20260510103503 62 193 10.4 20.0 0.01 0.10 0.09 73 1018.0
20260510103003 61 201 10.4 20.9 0.01 0.10 0.09 71 1017.9
20260510102503 60 202 9.6 20.9 0.01 0.10 0.09 75 1018.0
20260510102003 59 199 9.6 20.9 0.01 0.10 0.09 78 1018.0
20260510101503 58 208 10.4 20.9 0.01 0.10 0.09 81 1017.9
20260510101003 58 220 9.6 16.5 0.01 0.10 0.09 82 1018.0
20260510100503 59 209 9.6 20.0 0.01 0.10 0.09 84 1018.1
20260510100003 58 202 10.4 21.7 0.01 0.10 0.09 85 1017.9
20260510095503 57 204 9.6 21.7 0.01 0.10 0.09 86 1017.9
20260510095003 56 202 9.6 18.2 0.01 0.10 0.09 88 1017.9
20260510094503 56 201 9.6 19.1 0.01 0.10 0.09 87 1018.0
20260510094003 57 198 9.6 19.1 0.00 0.09 0.08 86 1018.0
20260510093717 57 199 10.4 19.1 0.00 0.09 0.08 85 1017.8
20260510093003 59 197 11.3 19.1 0.00 0.09 0.08 80 1017.7
20260510092503 58 193 11.3 19.1 0.00 0.09 0.08 78 1017.6
20260510092003 59 193 10.4 22.6 0.00 0.09 0.08 77 1017.6
20260510091503 59 186 11.3 22.6 0.00 0.09 0.08 77 1017.5
20260510091003 59 189 9.6 19.1 0.00 0.09 0.08 78 1017.4
20260510090503 58 194 9.6 16.5 0.00 0.09 0.08 79 1017.2
20260510090218 58 192 9.6 16.5 0.00 0.09 0.08 81 1017.3
20260510085503 58 193 8.7 20.0 0.00 0.09 0.08 80 1017.5
20260510085003 58 199 7.8 15.6 0.00 0.09 0.08 79 1017.4
20260510084503 57 195 8.7 16.5 0.00 0.09 0.08 84 1017.4
20260510084003 57 195 10.4 16.5 0.00 0.09 0.08 83 1017.5
20260510083717 57 188 10.4 20.9 0.00 0.09 0.08 82 1017.6
20260510083003 58 191 11.3 26.1 0.00 0.09 0.08 78 1017.4
20260510082503 58 191 10.4 22.6 0.00 0.09 0.08 79 1017.5
20260510082003 58 186 11.3 22.6 0.00 0.09 0.08 76 1017.1
20260510081503 59 188 10.4 21.7 0.00 0.09 0.08 76 1017.3
20260510081003 59 194 9.6 20.9 0.00 0.09 0.08 75 1017.1
20260510080503 58 208 10.4 20.9 0.00 0.09 0.08 76 1017.2
20260510080003 58 214 10.4 20.0 0.00 0.09 0.08 78 1017.4
20260510075503 58 204 9.6 20.0 0.00 0.09 0.08 78 1017.2
20260510075003 57 200 7.0 15.6 0.00 0.09 0.08 79 1017.4
20260510074503 57 201 7.0 15.6 0.00 0.09 0.08 81 1017.4
20260510074003 56 198 7.8 15.6 0.00 0.09 0.08 82 1017.3
20260510073716 56 192 7.8 15.6 0.00 0.09 0.08 82 1017.3
20260510073003 56 200 7.0 15.6 0.00 0.09 0.08 82 1017.3
20260510072503 56 196 5.2 14.8 0.00 0.09 0.08 82 1017.2
20260510072003 56 187 6.1 13.0 0.00 0.09 0.08 83 1017.2
20260510071718 56 189 6.1 13.0 0.00 0.09 0.08 84 1017.2
20260510071003 56 189 3.5 8.7 0.00 0.09 0.08 83 1017.1
20260510070718 56 187 4.3 13.0 0.00 0.09 0.08 83 1017.2
20260510070217 56 188 4.3 13.0 0.00 0.09 0.08 83 1016.9
20260510065718 56 195 4.3 8.7 0.00 0.09 0.08 83 1016.9
20260510065003 56 185 3.5 8.7 0.00 0.09 0.08 84 1017.0
20260510064503 56 180 3.5 9.6 0.00 0.09 0.08 84 1017.2
20260510064217 56 199 3.5 9.6 0.00 0.09 0.08 84 1017.1
20260510063503 56 188 4.3 9.6 0.00 0.09 0.08 84 1017.2
20260510063003 55 162 3.5 7.8 0.01 0.09 0.08 86 1017.2
20260510062503 55 171 1.7 6.1 0.01 0.09 0.08 87 1017.3
20260510062003 55 189 1.7 6.1 0.01 0.09 0.08 87 1017.2
20260510061718 55 202 0.9 6.1 0.01 0.09 0.08 87 1017.2
20260510061003 55 226 0.9 3.5 0.01 0.09 0.08 88 1017.2
20260510060503 55 220 1.7 5.2 0.01 0.09 0.08 88 1017.2
20260510060003 55 211 2.6 8.7 0.01 0.09 0.08 88 1017.1
20260510055503 55 196 4.3 13.9 0.01 0.09 0.08 88 1017.1
20260510055217 54 192 4.3 13.9 0.02 0.09 0.08 88 1017.0
20260510054503 54 193 4.3 12.2 0.03 0.09 0.08 90 1016.8
20260510054003 54 207 3.5 8.7 0.04 0.09 0.08 91 1016.9
20260510053503 54 210 4.3 8.7 0.05 0.09 0.08 90 1016.9
20260510053004 54 203 4.3 8.7 0.05 0.08 0.07 90 1016.8
20260510052503 54 196 4.3 9.6 0.06 0.08 0.07 90 1016.9
20260510052003 54 195 4.3 9.6 0.06 0.08 0.07 91 1017.0
20260510051503 54 196 1.7 7.0 0.06 0.08 0.07 92 1016.8
20260510051003 54 227 1.7 5.2 0.07 0.08 0.07 93 1016.8
20260510050718 53 230 1.7 5.2 0.07 0.08 0.07 93 1016.9
20260510050003 54 211 1.7 5.2 0.07 0.08 0.07 93 1016.9
20260510045503 53 214 2.6 5.2 0.07 0.08 0.07 92 1016.9
20260510045003 53 220 1.7 5.2 0.06 0.07 0.06 92 1016.9
20260510044503 54 225 1.7 3.5 0.05 0.06 0.05 92 1016.6
20260510044003 54 225 2.6 3.5 0.04 0.05 0.04 91 1016.7
20260510043717 54 225 1.7 3.5 0.03 0.04 0.03 91 1016.8
20260510043003 54 226 1.7 3.5 0.02 0.03 0.02 90 1016.8
20260510042503 54 202 1.7 3.5 0.01 0.02 0.01 90 1016.6
20260510042003 54 202 2.6 5.2 0.01 0.02 0.01 89 1016.6
20260510041503 54 201 1.7 5.2 0.01 0.02 0.01 87 1016.9
20260510041003 55 200 0.9 3.5 0.00 0.01 0.00 86 1016.8
20260510040717 55 196 0.9 3.5 0.00 0.01 0.00 85 1016.7
20260510040003 55 185 0.9 3.5 0.00 0.01 0.00 83 1016.9
20260510035717 55 175 0.9 3.5 0.00 0.01 0.00 83 1016.7
20260510035218 55 169 1.7 5.2 0.00 0.01 0.00 83 1016.5
20260510034503 55 170 2.6 6.1 0.00 0.01 0.00 83 1016.7
20260510034003 55 153 1.7 6.1 0.00 0.01 0.00 83 1016.9
20260510033503 55 157 0.9 2.6 0.00 0.01 0.00 82 1016.7
20260510033003 55 168 0.9 3.5 0.00 0.01 0.00 82 1016.7
20260510032503 55 178 1.7 5.2 0.00 0.01 0.00 82 1016.8
20260510032218 55 175 1.7 5.2 0.00 0.01 0.00 82 1016.7
20260510031717 55 167 2.6 6.1 0.00 0.01 0.00 82 1016.8
20260510031218 55 170 3.5 11.3 0.00 0.01 0.00 82 1016.7
20260510030503 55 175 4.3 11.3 0.00 0.01 0.00 83 1016.8
20260510030003 54 167 2.6 7.8 0.00 0.01 0.00 84 1016.6
20260510025503 55 158 0.9 2.6 0.00 0.01 0.00 84 1016.6
20260510025218 55 157 0.9 2.6 0.00 0.01 0.00 84 1016.8
20260510024503 55 175 1.7 6.1 0.00 0.01 0.00 84 1016.9
20260510024218 55 167 2.6 6.1 0.00 0.01 0.00 84 1017.0
20260510023503 55 146 4.3 7.0 0.00 0.01 0.00 83 1017.1
20260510023004 55 144 4.3 7.8 0.00 0.01 0.00 84 1016.9
20260510022503 55 142 5.2 8.7 0.00 0.01 0.00 84 1016.9
20260510022003 55 148 5.2 8.7 0.00 0.01 0.00 83 1017.1
20260510021503 55 154 5.2 7.8 0.00 0.01 0.00 84 1017.0
20260510021003 55 150 5.2 7.8 0.00 0.01 0.00 84 1016.9
20260510020716 55 150 4.3 7.8 0.00 0.01 0.00 84 1017.1
20260510020217 55 157 4.3 7.8 0.00 0.01 0.00 85 1016.9
20260510015716 55 154 5.2 7.8 0.00 0.01 0.00 85 1016.9
20260510015003 55 163 4.3 9.6 0.00 0.01 0.00 85 1017.0
20260510014503 55 166 5.2 9.6 0.00 0.01 0.00 84 1017.3
20260510014003 55 164 5.2 9.6 0.00 0.01 0.00 84 1017.4
20260510013503 55 157 5.2 9.6 0.00 0.01 0.00 84 1017.2
20260510013003 55 158 4.3 7.8 0.00 0.01 0.00 85 1017.4
20260510012503 55 165 4.3 8.7 0.00 0.01 0.00 84 1017.2
20260510012003 55 163 4.3 8.7 0.00 0.01 0.00 85 1017.3
20260510011503 55 160 4.3 7.8 0.00 0.01 0.00 85 1017.4
20260510011003 55 164 4.3 8.7 0.00 0.01 0.00 84 1017.5
20260510010504 55 155 5.2 8.7 0.00 0.01 0.00 84 1017.5
20260510010003 55 151 5.2 7.8 0.00 0.01 0.00 84 1017.5
20260510005503 54 152 4.3 7.0 0.00 0.01 0.00 84 1017.7
20260510005003 54 149 4.3 7.0 0.00 0.01 0.00 85 1017.8
20260510004503 54 148 4.3 7.0 0.00 0.01 0.00 84 1017.9
20260510004003 54 146 4.3 7.0 0.00 0.01 0.00 84 1017.8
20260510003503 54 146 4.3 7.0 0.00 0.01 0.00 84 1017.9
20260510003217 54 148 4.3 7.0 0.00 0.01 0.00 83 1017.9
20260510002503 54 152 4.3 7.0 0.00 0.01 0.00 82 1017.8
20260510002003 54 156 3.5 7.0 0.00 0.01 0.00 83 1018.0
20260510001503 53 147 2.6 6.1 0.00 0.01 0.00 83 1017.9
20260510001003 54 140 1.7 3.5 0.00 0.01 0.00 82 1017.8
20260510000503 54 153 0.9 1.7 0.00 0.01 0.00 82 1017.9
20260510000003 54 163 0.9 2.6 0.00 0.01 0.00 82 1017.9
20260509235503 54 289 0.9 2.6 0.00 0.01 0.00 83 1017.9
20260509235003 54 311 0.9 2.6 0.00 0.01 0.00 83 1018.0